Location: Zihuatanejo
(17.6330°N, 101.5500°W)
Time: 15:54:08
(UTC-05:00)

Daily predictions for brighter satellites

Satellite Brightness Start Highest point End
(mag) Time Altitude Azimuth Time Altitude Azimuth Time Altitude Azimuth
METEOR-M 4.1 20:22:39 10° SSE 20:27:57 68° ENE 20:33:15 10° N
Cosmos 1455 3.1 20:27:14 10° SSE 20:30:31 27° E 20:33:46 10° NNE
Fermi 4.1 20:28:33 10° WNW 20:32:36 59° NNE 20:36:40 10° E
Meteor 1-27 4.2 20:30:17 10° S 20:35:56 85° E 20:41:32 10° N
GPS 2-14 Rocket1 4.5 20:34:36 10° WSW 20:38:03 25° SSW 20:41:31 10° SE
In-Cosmos 22 Rocket 4.1 20:36:07 10° N 20:41:19 57° E 20:46:33 10° SSE
Resurs 01 Rocket 2.8 20:44:20 11° SE 20:47:42 25° ENE 20:51:18 10° NNE
SJ-6B 2.8 20:44:53 10° SSE 20:48:39 61° ENE 20:52:32 10° N
FENGYUN 3A 3.7 20:45:03 10° SSE 20:50:18 57° ENE 20:55:32 10° N
Lacrosse 5 2.9 20:47:26 10° NW 20:52:14 44° WSW 20:57:00 10° S
H-2A R/B 3.2 20:55:28 13° SE 20:58:44 41° ENE 21:02:24 10° N
Cosmos 1741 Rocket 4.4 20:53:59 10° NNW 20:59:15 66° WSW 21:04:29 10° S
Cosmos 1892 3.2 20:57:15 10° NNE 21:00:47 37° E 21:02:55 20° SE
Cosmos 2322 Rocket 2.2 20:57:03 10° S 21:02:33 59° ESE 21:08:02 10° NNE
Cosmos 2297 Rocket 2.3 20:57:04 10° NNW 21:02:42 78° WSW 21:08:20 10° SSE
FREGAT/IRIS 3.6 21:00:34 10° S 21:03:29 47° W 21:06:24 10° NNW
Cosmos 1400 Rocket 3.1 20:59:52 10° N 21:03:37 44° E 21:06:09 19° SSE
Meteor 1-29 4.4 21:04:58 10° NE 21:06:41 21° ENE 21:06:41 21° ENE
Cosmos 2360 Rocket 3.8 21:15:49 16° ENE 21:15:49 16° ENE 21:17:18 10° NE
Cosmos 1980 Rocket 4.4 21:08:59 10° SW 21:13:46 28° WNW 21:18:34 10° NNW
Cosmos 1315 Rocket 3.6 21:13:44 10° NNE 21:17:08 31° ENE 21:17:08 31° ENE
CZ-2D R/B 3.5 21:18:16 38° ESE 21:19:16 49° ENE 21:23:02 10° N
Meteor 2-3 Rocket 3.7 21:14:15 10° N 21:20:00 89° WSW 21:25:48 10° S
GPS 2-15 Rocket1 3.0 21:16:31 10° W 21:21:11 80° S 21:22:52 39° ESE
H-2A R/B (2) 3.2 21:18:11 10° WNW 21:22:33 78° SSW 21:33:12 24° ESE
CZ-3 Stage 3 3.3 20:55:52 10° WNW 21:28:26 79° NNE 21:31:42 34° ESE
SL-16 R/B 2.4 21:24:35 10° SSW 21:30:12 72° WNW 21:35:52 10° NNE
USA 186 4.2 21:34:07 11° N 21:34:07 11° N 21:34:18 10° N
Cosmos 2227 Rocket 4.2 21:29:22 10° NW 21:33:55 25° WSW 21:38:28 10° SSW
Cosmos 2026 Rocket 4.5 21:28:45 10° NNE 21:34:18 35° E 21:34:22 35° E
GPS 2-04 Rocket1 3.8 21:33:01 10° NNW 21:36:03 29° NNE 21:36:03 29° NNE
GPS 2-17 Rocket1 3.1 21:33:53 10° WNW 21:38:11 62° N 21:38:48 54° NE
ATLAS CENTAUR R/B 3.2 21:34:04 10° NNW 21:38:13 61° ENE 21:42:08 34° SE
Hubble Space Telescope 1.1 21:34:12 10° WNW 21:38:14 52° SSW 21:38:31 51° S
Cosmos 1634 Rocket 4.3 21:33:45 10° S 21:39:58 70° W 21:46:15 10° N
ALOS 4.2 21:38:03 10° SSW 21:42:02 28° W 21:46:01 10° NW
Helios 1B rocket 3.2 21:42:49 10° N 21:46:47 51° WNW 21:50:46 10° SSW
Sakura Rocket 4.1 21:46:08 10° W 21:49:43 37° NNW 21:50:45 32° NNE
Milstar 3 3.8 21:42:34 10° WNW 21:49:55 38° N 21:53:09 24° NE
Resurs 1-3 4.3 21:51:07 33° SSW 21:52:41 50° W 21:56:56 10° NNW
Cosmos 1092 Rocket 4.2 21:48:52 10° N 21:55:11 73° W 21:59:18 23° S
Cosmos 1486 Rocket 3.9 21:54:33 10° NNW 21:59:43 84° NE 21:59:43 84° NE
Cosmos 1655 Rocket 4.4 21:55:23 10° N 22:00:35 47° NE 22:00:35 47° NE
Meteor 2-20 Rocket 4.3 21:56:36 10° N 22:02:41 72° E 22:02:47 72° E
USA 229 DEB 3.5 21:56:29 10° SSW 22:03:15 74° ESE 22:10:04 10° NNE
USA 229 3.5 21:56:35 10° SSW 22:03:20 74° ESE 22:10:09 10° NNE
FUSE 4.3 21:59:42 10° W 22:04:29 54° SW 22:04:29 54° SW
Atlas Centaur 2 3.9 22:02:52 10° W 22:09:23 40° NNW 22:14:12 21° NE
Helios 1A 4.4 22:13:13 35° NNW 22:13:13 35° NNW 22:15:46 10° NNW
Cosmos 2227 4.2 22:06:10 10° NNW 22:11:15 71° N 22:11:15 71° N
Ariane H10+ 4.0 22:08:49 10° SW 22:11:48 26° SSW 22:11:48 26° SSW
BREEZE-M DEB (TANK) 4.4 22:11:28 10° NW 22:15:28 60° SW 22:16:56 50° S
Meteosat 1 Rocket2 4.0 22:06:20 10° WNW 22:15:29 82° SSW 22:15:45 80° SSE
Resurs 01 Rocket 4.2 22:21:55 12° SW 22:23:59 16° W 22:26:47 10° WNW
Cosmos 2263 Rocket 4.3 22:48:49 10° N 22:50:09 18° N 22:50:09 18° N
Cosmos 2360 Rocket 3.9 22:57:15 28° WNW 22:57:15 28° WNW 23:01:35 10° N
